TimeEDT,TemperatureF,Dew PointF,Humidity,Sea Level PressureIn,VisibilityMPH,Wind Direction,Wind SpeedMPH,Gust SpeedMPH,PrecipitationIn,Events,Conditions,WindDirDegrees,DateUTC
12:53 AM,55.9,44.1,64,30.16,10.0,NNE,5.8,-,N/A,,Clear,20,2013-09-06 04:53:00
1:53 AM,52.0,43.0,71,30.17,10.0,Calm,Calm,-,N/A,,Clear,0,2013-09-06 05:53:00
2:53 AM,46.0,42.1,86,30.17,10.0,Calm,Calm,-,N/A,,Clear,0,2013-09-06 06:53:00
3:53 AM,57.0,48.9,74,30.17,10.0,NNE,9.2,-,N/A,,Clear,20,2013-09-06 07:53:00
4:53 AM,55.9,46.9,72,30.19,10.0,NNE,9.2,-,N/A,,Clear,30,2013-09-06 08:53:00
5:53 AM,55.9,45.0,67,30.19,10.0,NE,10.4,-,N/A,,Clear,40,2013-09-06 09:53:00
6:53 AM,57.0,44.1,62,30.22,10.0,NNE,8.1,-,N/A,,Clear,30,2013-09-06 10:53:00
7:53 AM,61.0,45.0,56,30.23,10.0,NNE,11.5,-,N/A,,Clear,20,2013-09-06 11:53:00
8:53 AM,63.0,43.0,48,30.25,10.0,NNE,12.7,-,N/A,,Clear,30,2013-09-06 12:53:00
9:53 AM,64.9,42.1,43,30.26,10.0,NE,11.5,-,N/A,,Clear,40,2013-09-06 13:53:00
10:53 AM,66.9,42.1,40,30.25,10.0,NNE,11.5,-,N/A,,Clear,30,2013-09-06 14:53:00
11:53 AM,66.9,43.0,42,30.25,10.0,NE,8.1,-,N/A,,Clear,50,2013-09-06 15:53:00
12:53 PM,66.9,43.0,42,30.25,10.0,Calm,Calm,-,N/A,,Clear,0,2013-09-06 16:53:00
1:53 PM,66.9,43.0,42,30.24,10.0,ESE,5.8,-,N/A,,Partly Cloudy,110,2013-09-06 17:53:00
2:53 PM,66.9,44.1,44,30.22,10.0,Variable,5.8,-,N/A,,Partly Cloudy,0,2013-09-06 18:53:00
3:53 PM,66.9,45.0,45,30.20,10.0,Variable,3.5,-,N/A,,Clear,0,2013-09-06 19:53:00
4:53 PM,66.9,44.1,44,30.18,10.0,ESE,6.9,-,N/A,,Clear,110,2013-09-06 20:53:00
5:53 PM,66.0,44.1,45,30.18,10.0,SE,3.5,-,N/A,,Clear,140,2013-09-06 21:53:00
6:53 PM,62.1,46.9,58,30.18,10.0,Calm,Calm,-,N/A,,Clear,0,2013-09-06 22:53:00
7:53 PM,53.1,46.0,77,30.18,10.0,South,3.5,-,N/A,,Clear,170,2013-09-06 23:53:00
8:53 PM,50.0,45.0,83,30.18,10.0,Calm,Calm,-,N/A,,Clear,0,2013-09-07 00:53:00
9:53 PM,48.0,44.1,86,30.18,10.0,Calm,Calm,-,N/A,,Clear,0,2013-09-07 01:53:00
10:53 PM,45.0,42.1,90,30.17,10.0,Calm,Calm,-,N/A,,Clear,0,2013-09-07 02:53:00
11:53 PM,45.0,42.1,90,30.15,10.0,Calm,Calm,-,N/A,,Clear,0,2013-09-07 03:53:00